Hourly Weather Roundup
Issued by NWS Central Illinois

Home | Current Version | Previous Version | Text Only | Print | Product List | Glossary On
Versions: 1 2 3 4 5 6 7 8 9 10 11 12 13 14 15 16 17 18 19 20 21 22 23 24 25 26 27 28 29 30 31 32 33 34 35 36 37 38 39 40 41 42 43 44 45 46 47 48 49 50
000
NZUS43 KILX 221310
HWRILX

AREA WEATHER ROUNDUP
NATIONAL WEATHER SERVICE, LINCOLN IL
800 AM CDT MON SEP 22 2014


CITY           SKY/WX    TMP DP  RH WIND       PRES   REMARKS
BLOOMINGTON    SUNNY     49  45  86 N7        30.29R
CHAMPAIGN      MOSUNNY   49  46  90 N7        30.27R
DECATUR        SUNNY     53  48  83 N5        30.28R
FLORA          SUNNY     51  51  97 N6        30.26R
GALESBURG      SUNNY     45  45 100 N3        30.30R
JACKSONVILLE   SUNNY     51  51  97 CALM      30.29R
LACON          SUNNY     46  45  95 CALM      30.29R
LAWRENCEVILLE  SUNNY     54  52  93 N5        30.25R
LITCHFIELD     SUNNY     49  49 100 CALM      30.27R
$$


CITY           SKY/WX    TMP DP  RH WIND       PRES   REMARKS
LINCOLN        SUNNY     50  48  91 CALM      30.27R
MACOMB         SUNNY     46  46  99 N3        30.31R
MATTOON        SUNNY     50  47  89 N6        30.25R
MT CARMEL AP   SUNNY     54  54 100 CALM      30.25R
OLNEY-NOBLE AP SUNNY     52  50  93 CALM      30.26R
PARIS          SUNNY     49  49  99 CALM      30.26R
PEORIA         SUNNY     50  45  83 CALM      30.29R
PONTIAC        SUNNY     46  46 100 CALM      30.27S
RANTOUL        SUNNY     51  45  82 N6        30.27R
ROBINSON       SUNNY     52  52  99 CALM      30.25R
SPRINGFIELD    SUNNY     52  48  86 NE3       30.28R
TAYLORVILLE    SUNNY     48  48 100 N3        30.27S
$$

...REGIONAL REPORTS...


CITY           SKY/WX    TMP DP  RH WIND       PRES   REMARKS
CHICAGO O`HARE MOSUNNY   48  40  73 N6        30.26R
KANKAKEE       SUNNY     49  45  85 NW5       30.28R
MOLINE         SUNNY     46  44  93 CALM      30.30R
MOUNT VERNON   SUNNY     52  46  82 CALM      30.26S
PITTSFIELD     SUNNY     53  49  85 N3        30.29R
QUINCY         SUNNY     51  48  89 N3        30.29R
ROCKFORD       SUNNY     46  42  86 CALM      30.30R
$$


CITY           SKY/WX    TMP DP  RH WIND       PRES   REMARKS
BURLINGTON     SUNNY     51  48  89 N5        30.30R
CEDAR RAPIDS   SUNNY     45  45 100 N6        30.30R
DES MOINES     CLEAR     50  47  89 NW5       30.31S
KIRKSVILLE     SUNNY     51  48  89 CALM      30.32R
OTTUMWA        SUNNY     47  45  93 NW3       30.30S
ST LOUIS       SUNNY     57  50  77 CALM      30.28R
$$


CITY           SKY/WX    TMP DP  RH WIND       PRES   REMARKS
TERRE HAUTE    SUNNY     52  49  89 N5        30.25R
EVANSVILLE     SUNNY     56  51  84 N6        30.24R
INDIANAPOLIS   MOSUNNY   50  44  80 N10       30.22R
LAFAYETTE      MOSUNNY   49  46  90 NE3       30.26R
MADISON        SUNNY     45  41  86 CALM      30.27S
MILWAUKEE      SUNNY     49  41  74 CALM      30.26R
$$





USA.gov is the U.S. government's official web portal to all federal, state and local government web resources and services.